Hourly Weather Roundup
Issued by NWS Central Illinois

Home | Current Version | Previous Version | Text Only | Print | Product List | Glossary On
Versions: 1 2 3 4 5 6 7 8 9 10 11 12 13 14 15 16 17 18 19 20 21 22 23 24 25 26 27 28 29 30 31 32 33 34 35 36 37 38 39 40 41 42 43 44 45 46 47 48 49 50
000
NZUS43 KILX 070610
HWRILX

AREA WEATHER ROUNDUP
NATIONAL WEATHER SERVICE, LINCOLN IL
100 AM CDT THU MAY 07 2015


CITY           SKY/WX    TMP DP  RH WIND       PRES   REMARKS
BLOOMINGTON    CLEAR     65  55  69 S8        30.08S
6HR MIN TEMP:  65; 6HR MAX TEMP:  80;

CHAMPAIGN      CLEAR     64  51  62 SE7       30.07S
6HR MIN TEMP:  63; 6HR MAX TEMP:  84;

DANVILLE       CLEAR     66  54  64 CALM      30.06F
6HR MIN TEMP:  65; 6HR MAX TEMP:  79;

DECATUR        CLEAR     65  54  67 S3        30.07R
6HR MIN TEMP:  59; 6HR MAX TEMP:  82;

EFFINGHAM      CLEAR     64  53  65 E3        30.09S
FLORA          CLEAR     62  55  78 CALM      30.08R
6HR MIN TEMP:  62; 6HR MAX TEMP:  81;

GALESBURG      PTCLDY    67  55  63 SE9       30.01S
JACKSONVILLE   CLEAR     72  55  54 SE9       30.03S
6HR MIN TEMP:  71; 6HR MAX TEMP:  84;

LACON          CLEAR     65  53  66 CALM      30.03S
6HR MIN TEMP:  64; 6HR MAX TEMP:  80;

LAWRENCEVILLE  CLEAR     66  57  72 CALM      30.08S
6HR MIN TEMP:  66; 6HR MAX TEMP:  82;

LITCHFIELD     CLEAR     66  54  64 SE6       30.06S
$$


CITY           SKY/WX    TMP DP  RH WIND       PRES   REMARKS
LINCOLN        CLEAR     67  55  63 CALM      30.03S
6HR MIN TEMP:  66; 6HR MAX TEMP:  83;

MACOMB         CLEAR     65  55  69 SE7       30.03S
MATTOON        CLEAR     65  54  67 SE5       30.07S
6HR MIN TEMP:  65; 6HR MAX TEMP:  81;

MT CARMEL AP   CLEAR     68  54  60 CALM      30.07S
OLNEY-NOBLE AP CLEAR     61  55  82 CALM      30.08S
PARIS          CLEAR     64  55  70 SE3       30.09S
6HR MIN TEMP:  64; 6HR MAX TEMP:  80;

PEORIA         CLEAR     72  54  53 S8        30.04R
6HR MIN TEMP:  72; 6HR MAX TEMP:  81;

PONTIAC        PTCLDY    62  57  86 CALM      30.07S
RANTOUL        CLEAR     67  55  64 CALM      30.08S
6HR MIN TEMP:  67; 6HR MAX TEMP:  84;

ROBINSON       CLEAR     62  56  78 CALM      30.09S
6HR MIN TEMP:  62; 6HR MAX TEMP:  83;

SPRINGFIELD    CLEAR     71  55  56 S10       30.05R
6HR MIN TEMP:  71; 6HR MAX TEMP:  83;

TAYLORVILLE    MOCLDY    64  54  68 S5        30.06R
$$

...REGIONAL REPORTS...


CITY           SKY/WX    TMP DP  RH WIND       PRES   REMARKS
CHICAGO O`HARE PTCLDY    54  50  86 CALM      30.07R
KANKAKEE       CLEAR     65  55  71 CALM      30.08S
MOLINE         MOCLDY    67  56  67 SE9       29.98F
MOUNT VERNON   CLEAR    N/A N/A N/A CALM      30.08R
PITTSFIELD     PTCLDY    69  53  55 SE7       30.02S
QUINCY         MOCLDY    69  52  54 S9        29.98F
ROCKFORD       PTCLDY    62  56  80 SE3       30.05F HAZE
$$


CITY           SKY/WX    TMP DP  RH WIND       PRES   REMARKS
BURLINGTON     CLEAR     70  55  59 SE10      29.97S
CEDAR RAPIDS   PTCLDY    65  60  84 SE10      29.93F
DES MOINES     MOCLDY    70  57  63 S15G26    29.86S
KIRKSVILLE     PTCLDY    65  57  75 S12       29.95S
OTTUMWA        CLEAR     66  59  78 SE13      29.92S
ST LOUIS       MOCLDY    74  53  48 SE8       30.04S
$$


CITY           SKY/WX    TMP DP  RH WIND       PRES   REMARKS
TERRE HAUTE    CLEAR     63  55  75 CALM      30.08F
EVANSVILLE     CLEAR     65  59  81 CALM      30.08S
INDIANAPOLIS   CLEAR     67  52  58 SE7       30.09F
LAFAYETTE      PTCLDY    62  55  77 E3        30.08F
MADISON        CLEAR     61  56  83 SE7       30.03F HAZE
MILWAUKEE      FOG       46  46 100 CALM      30.08F VSB 1
$$




USA.gov is the U.S. government's official web portal to all federal, state and local government web resources and services.